CAPE
2944 2929 3005 3096 3463 3293 3054 3041 3078 3074 2768 2907 3071 3129 3251 3039 3435 3861 3283 2904 1546 204 0 430 1878 1845 1543 1398 1048 813 645 440 341 274 335 330 409 351 122 34 420 402 887
2529 2843 2984 3007 3018 3264 3191 3035 2909 2916 2699 2749 3415 3143 2530 2820 3552 3375 3033 2649 1980 690 626 572 1411 1678 1552 1206 1054 705 545 582 601 481 678 684 777 628 552 192 171 476 1165
2246 2610 2629 2765 2864 2926 3143 2987 3023 3082 2842 3002 3234 2530 3019 3140 3568 3153 2925 2682 2226 1378 1076 1384 1900 2048 1898 1372 1183 883 703 843 935 1294 1286 1190 1235 1019 743 446 411 533 1032
2254 2116 2434 2519 2813 2418 2115 2106 2083 2158 2575 2856 2810 2742 3090 3375 2955 2858 2722 2599 2343 1962 1793 2134 2119 2164 2177 1839 1603 1433 1543 1573 1725 1818 1742 1415 1154 1273 857 781 627 564 567
2167 2003 1969 2350 2162 2089 2206 2098 2078 2523 2957 3301 3457 3290 3214 3132 3289 2972 2557 2116 2147 2438 2513 2333 2216 2188 2133 2128 1964 1988 2052 1938 1997 1587 1255 1004 607 1038 1021 752 839 699 667
1984 1935 2117 1940 1830 1876 2931 3553 3744 3730 3582 3546 3285 2877 2773 3086 2818 2287 1956 1863 1619 1370 1564 1984 2149 2282 2279 2085 1848 1892 1910 1869 1776 1651 1369 895 274 1340 1672 1524 1303 1147 899
2400 2095 1957 1891 2275 3797 3806 3742 3180 3043 2854 2418 1371 826 795 1287 1737 1586 1257 694 438 380 623 857 1327 1807 1946 1778 1766 1711 1545 1547 1529 1504 933 612 712 758 1235 1731 1873 1597 1273
2397 2273 2143 3378 4248 3839 3297 3170 2944 1429 680 651 551 494 530 710 769 1024 815 161 2 29 9 13 48 188 1143 1306 1353 1554 1605 1471 1440 1333 919 1035 966 818 985 957 1635 1982 1714
2465 2756 4183 4183 3695 3577 3356 1867 774 659 612 517 485 716 342 303 371 374 360 114 1 0 0 0 0 0 0 12 122 719 1338 1443 1212 1253 1002 732 555 729 831 1284 1781 1971 1840
2773 4477 4334 3627 3307 2591 1861 890 843 796 880 1098 648 521 595 611 524 414 252 114 26 0 0 0 0 0 0 0 0 0 1 810 1162 1095 1039 925 637 777 1079 1272 1169 1361 1401
4411 3631 3487 3246 2265 1327 936 1132 1162 1152 1205 1122 982 803 780 812 791 523 256 293 273 94 10 2 0 1 0 0 0 0 0 0 0 173 763 652 557 595 705 1144 1290 1449 1488
3484 3052 2518 1815 954 1394 1301 1281 1225 1252 1298 1271 966 728 241 58 0 0 0 0 0 11 56 47 8 1 0 0 0 0 0 0 0 0 24 58 129 168 388 590 1024 1305 1405
2083 1531 1264 1268 1072 851 928 1130 1489 1494 1158 869 52 0 0 0 0 0 0 0 0 0 0 0 0 0 1 0 0 0 0 0 0 0 0 0 0 0 0 0 29 744 1160
1358 1274 1089 987 1126 1301 1476 1516 1096 639 584 175 23 0 0 2 3 9 16 4 0 0 0 0 0 0 0 0 0 0 0 0 0 0 0 0 0 0 0 18 36 41 732
1057 835 870 973 895 887 1018 1051 934 697 367 0 0 0 1 2 2 0 10 10 0 0 0 0 0 0 0 0 0 0 0 0 0 0 0 0 0 0 0 1 1 15 148
266 432 271 1 4 59 63 50 8 30 66 4 20 12 2 0 0 0 3 1 0 0 0 0 0 0 0 0 0 3 0 0 0 0 0 0 0 0 1 12 30 70 17
1 9 164 96 75 38 13 27 12 19 61 74 0 0 0 0 0 0 0 0 0 0 0 0 0 0 0 0 3 5 21 20 15 23 28 24 10 0 3 3 28 16 103
226 117 74 115 41 33 21 21 12 23 0 0 0 0 0 0 0 0 0 0 0 0 0 0 0 0 0 0 0 0 0 0 6 20 25 17 34 33 22 17 17 28 19
237 37 4 0 0 0 0 0 0 0 0 0 0 0 0 0 0 0 0 3 2 0 1 0 0 0 1 0 0 0 0 0 1 6 1 2 16 25 37 32 32 26 40
0 0 0 0 0 0 0 0 0 0 0 0 0 0 0 0 0 0 16 2 0 0 0 0 3 6 8 3 9 4 0 0 1 8 10 8 1 2 9 31 48 40 49
0 0 0 0 0 0 0 0 0 0 0 0 0 0 0 0 4 0 0 4 10 13 6 2 11 3 1 0 0 2 3 1 0 6 13 15 5 3 0 0 9 21 14
0 0 0 0 0 0 0 0 0 0 0 0 0 4 1 2 8 14 10 8 9 11 9 1 3 7 2 2 1 8 2 5 3 3 9 4 1 0 0 0 0 22 3
0 0 0 0 0 0 0 0 0 0 0 0 4 0 0 1 2 7 13 10 10 8 12 10 3 9 1 4 4 8 21 3 3 4 2 0 17 20 0 0 0 0 22
0 0 0 0 0 0 0 0 3 1 0 1 3 0 0 0 8 0 1 3 6 10 6 7 1 0 0 0 3 1 18 29 4 2 1 4 7 8 7 2 0 28 31
0 0 0 0 0 0 0 0 3 6 0 2 0 0 0 1 0 0 0 1 0 5 1 2 0 0 0 13 18 1 23 32 8 21 6 5 26 21 22 61 31 62 16
0 0 0 0 0 0 0 0 0 0 0 0 0 0 0 0 0 0 3 0 0 0 2 4 4 2 0 4 4 9 8 5 9 18 44 27 24 8 23 40 70 64 68
CIN
-150 -152 -119 -99 -73 -68 -61 -41 -30 -31 -46 -59 -41 -40 -44 -53 -37 -5 -23 -29 -25 -200 0 -97 -16 -23 -23 -44 -57 -89 -83 -94 -91 -98 -85 -63 -41 -49 -54 -67 -51 -70 -29
-154 -145 -120 -99 -85 -71 -56 -51 -41 -37 -42 -47 -36 -21 -73 -70 -23 -8 -20 -26 -30 -96 -245 -261 -95 -35 -31 -30 -67 -91 -130 -126 -104 -124 -64 -36 -16 -10 -24 -47 -44 -103 -34
-170 -128 -109 -102 -88 -68 -45 -47 -46 -22 -33 -40 -19 -41 -46 -35 -7 -12 -17 -17 -22 -39 -190 -128 -44 -16 -24 -48 -45 -48 -72 -41 -49 -16 -43 -30 -16 -8 -10 -36 -64 -93 -49
-177 -150 -107 -92 -43 -41 -55 -64 -59 -87 -96 -57 -19 -27 -28 -9 -19 -30 -31 -33 -25 -24 -87 -24 -26 -26 -13 -30 -32 -45 -18 -16 -19 -5 -14 -23 -56 -26 -8 -22 -28 -34 -38
-158 -130 -162 -78 -89 -75 -77 -59 -85 -46 -21 -13 -13 -12 -19 -21 -27 -9 -7 -26 -84 -50 -26 -30 -45 -37 -28 -23 -20 -21 -18 -13 -6 -2 -24 -53 -150 -52 -24 -60 -58 -56 -59
-162 -264 -136 -105 -105 -164 -64 -39 -14 -5 -8 -7 -3 -6 -5 -15 -12 -21 -39 -27 -26 -30 -64 -50 -36 -26 -13 -10 -13 -15 -22 -16 -14 -13 -31 -99 -260 -47 -6 -6 -19 -36 -66
-306 -207 -149 -116 -149 -39 -29 -20 -28 -13 -13 -21 -109 -249 -252 -136 -85 -95 -135 -233 -293 -278 -175 -143 -71 -9 -4 -3 -23 -5 -9 -23 -36 -23 -89 -92 -85 -56 -78 -17 -13 -29 -43
-205 -129 -142 -108 -30 -23 -33 -22 -10 -87 -235 -264 -291 -319 -341 -220 -195 -122 -136 -363 -274 -528 -262 -294 -487 -353 -11 -5 -25 -17 -10 -21 -20 -23 -52 -47 -60 -85 -37 -84 -31 -2 -13
-114 -159 -61 -33 -27 -14 -8 -61 -236 -242 -245 -277 -280 -181 -269 -309 -296 -248 -217 -350 -231 0 0 0 0 0 0 -549 -408 -99 -8 -8 -33 -21 -21 -90 -139 -90 -69 -50 -12 -8 -3
-138 -7 -9 -25 -24 -53 -73 -190 -209 -217 -184 -136 -245 -242 -125 -104 -128 -122 -150 -216 -336 -148 0 0 0 0 0 0 0 0 -21 -16 -5 -2 -10 -24 -88 -114 -64 -24 -33 -15 -29
-2 -18 -18 -24 -65 -78 -206 -189 -158 -137 -109 -105 -114 -126 -108 -47 -32 -74 -149 -93 -67 -138 -294 -107 0 -108 0 0 0 0 0 0 0 -33 -9 -7 -47 -43 -119 -74 -45 -22 -19
-23 -32 -55 -65 -174 -146 -122 -111 -102 -88 -105 -51 -76 -91 -34 -54 0 0 0 0 0 -25 -113 -137 -13 -21 0 0 0 0 0 0 0 0 -88 -61 -213 -180 -75 -47 -43 -42 -48
-31 -47 -120 -142 -138 -141 -116 -119 -67 -32 -46 -66 -291 0 0 0 0 0 0 0 0 0 0 0 0 0 0 0 0 0 0 0 0 0 0 0 0 0 0 0 -12 -27 -39
-33 -76 -106 -110 -120 -76 -51 -27 -40 -93 -40 -44 -149 0 0 -16 -19 -6 -16 -2 0 0 0 0 0 0 0 0 0 0 0 0 0 0 0 0 0 0 0 -243 -235 -201 -35
-24 -37 -63 -82 -99 -78 -81 -41 -24 -28 -30 -1 0 0 0 -14 -3 0 -5 -2 0 0 0 0 0 0 0 0 0 0 0 0 0 0 0 0 0 0 0 -120 -131 -110 -150
-87 -146 -109 -7 -108 -172 -94 -43 -156 -57 -27 -3 -1 0 0 0 0 -4 -7 -7 -5 0 0 0 0 0 0 0 0 -6 0 0 0 0 0 0 0 0 -16 -219 -199 -144 -252
-6 -155 -121 -132 -113 -197 -154 -107 -121 -24 -7 -3 0 0 0 0 0 0 0 0 0 0 0 0 0 0 0 -1 0 0 -1 -1 -1 -2 -98 -74 -5 0 -1 -1 -207 -232 -116
-95 -93 -103 -94 -110 -106 -34 -13 -3 -1 0 0 0 0 0 0 0 0 0 0 0 0 0 0 0 0 0 0 0 0 0 0 -2 -3 -4 -6 -69 -2 -19 -5 -15 -206 -99
-94 -108 -57 0 0 0 0 0 0 0 0 0 0 0 0 0 0 0 0 -1 0 0 -1 0 0 0 0 0 0 0 0 0 -4 -5 -3 -4 -6 -5 -2 -21 -25 -3 -188
0 0 0 0 0 0 0 0 0 0 0 0 0 0 0 0 0 0 0 0 0 0 0 0 0 0 0 0 0 0 0 0 -1 -2 -4 -4 -10 -1 -4 -2 -6 -44 -78
0 0 0 0 0 0 0 0 0 0 0 0 0 0 0 0 -104 -1 0 0 0 0 0 -1 -1 -4 -4 0 0 -6 -1 -1 -1 -6 -3 -6 -6 -6 0 0 -10 -5 -15
0 0 0 0 0 0 0 0 0 0 0 0 -1 -5 -19 -3 -2 -1 0 0 -1 -1 0 0 -2 -5 -2 -3 -1 0 -3 0 0 0 -1 -2 -6 0 0 0 0 -1 -3
0 0 0 0 0 0 0 0 0 0 0 0 0 0 0 0 -2 0 0 0 0 -5 0 0 -2 -5 -11 -1 -3 -6 0 -9 -4 -4 -1 0 -2 -4 -1 0 0 0 -15
0 0 0 0 0 0 0 0 -1 0 0 0 -1 0 -1 0 -1 -1 -2 -2 -1 -5 -1 -2 -10 -2 0 -1 -1 0 0 0 -2 0 0 0 -2 -1 0 -1 0 -22 -9
0 0 0 0 0 0 0 0 0 0 0 0 0 0 0 -1 0 0 0 -1 0 0 -7 -5 0 0 0 -1 0 0 0 -2 -1 0 0 -1 0 0 0 0 0 -1 -17
0 0 0 0 0 0 0 0 0 0 0 0 0 0 0 0 0 0 0 0 0 0 0 0 0 0 0 0 0 0 0 0 -3 -6 -3 -1 0 -11 -4 0 0 -1 -11
Wind_Speed
19 19 18 19 20 20 20 21 21 21 21 18 17 18 17 17 19 19 22 26 40 48 nan 22 17 23 23 25 22 21 22 24 20 11 11 10 12 12 16 nan 5 10 13
20 23 21 21 23 23 23 22 21 23 23 24 24 26 25 25 24 23 23 27 40 43 41 27 23 26 28 26 26 22 19 17 18 16 16 12 13 13 12 9 10 7 12
22 19 21 23 25 22 25 24 24 24 24 24 26 25 25 28 30 29 29 28 33 37 32 30 28 25 26 26 26 26 22 19 17 16 16 19 14 13 15 14 12 2 10
24 24 22 21 25 24 23 24 24 23 27 28 26 25 25 28 29 31 31 30 33 35 33 30 28 26 26 27 26 26 25 21 19 15 14 16 17 13 16 18 17 12 8
28 25 25 24 23 25 27 25 27 26 28 28 28 26 27 30 32 32 32 32 34 32 30 28 27 28 25 27 25 24 29 26 25 21 18 18 18 17 16 14 12 13 15
25 25 29 27 27 29 31 32 33 32 30 33 33 33 33 35 38 41 36 35 35 32 31 29 28 26 27 24 24 24 26 26 26 27 22 21 17 18 18 18 14 12 11
29 28 30 31 32 33 35 35 34 38 40 39 38 41 39 39 44 43 41 42 37 35 31 30 31 28 28 29 27 25 24 25 23 28 23 25 20 19 18 17 17 16 14
32 33 34 35 35 37 39 42 42 41 42 43 43 46 46 44 41 45 46 45 nan nan nan nan nan 29 31 30 30 30 28 28 28 28 25 21 23 20 22 18 19 19 16
35 36 39 40 40 42 43 45 44 45 44 45 50 52 53 48 50 45 44 44 nan nan nan nan nan nan nan nan 40 33 30 28 31 31 28 21 19 18 22 26 21 23 18
42 47 48 47 45 49 50 49 46 49 50 54 57 41 42 52 51 44 44 49 nan nan nan nan nan nan nan nan nan nan nan 33 38 37 32 32 26 25 19 25 21 22 25
54 55 53 53 53 54 56 53 51 52 56 52 50 51 50 53 52 46 46 55 54 nan nan nan nan nan nan nan nan nan nan nan nan 35 33 32 31 29 28 30 26 26 24
54 55 55 54 56 58 59 57 57 55 49 55 60 54 57 nan nan nan nan nan nan nan nan nan nan nan nan nan nan nan nan nan nan nan nan nan 31 31 31 30 27 27 24
62 39 49 54 58 56 58 58 57 48 48 56 nan nan nan nan nan nan nan nan nan nan nan nan nan nan nan nan nan nan nan nan nan nan nan nan nan nan nan nan nan 27 24
34 49 23 51 44 48 54 47 55 60 60 57 nan nan nan nan nan nan nan nan nan nan nan nan nan nan nan nan nan nan nan nan nan nan nan nan nan nan nan nan nan nan 30
39 38 33 32 53 45 49 62 58 50 51 nan nan nan nan nan nan nan nan nan nan nan nan nan nan nan nan nan nan nan nan nan nan nan nan nan nan nan nan nan nan nan 34
49 37 41 nan nan nan nan nan nan nan nan nan nan nan nan nan nan nan nan nan nan nan nan nan nan nan nan nan nan nan nan nan nan nan nan nan nan nan nan nan nan nan nan
nan nan 44 nan nan nan nan nan nan nan nan nan nan nan nan nan nan nan nan nan nan nan nan nan nan nan nan nan nan nan nan nan nan nan nan nan nan nan nan nan nan nan 34
55 53 nan 58 nan nan nan nan nan nan nan nan nan nan nan nan nan nan nan nan nan nan nan nan nan nan nan nan nan nan nan nan nan nan nan nan nan nan nan nan nan nan nan
56 nan nan nan nan nan nan nan nan nan nan nan nan nan nan nan nan nan nan nan nan nan nan nan nan nan nan nan nan nan nan nan nan nan nan nan nan nan nan nan nan nan nan
nan nan nan nan nan nan nan nan nan nan nan nan nan nan nan nan nan nan nan nan nan nan nan nan nan nan nan nan nan nan nan nan nan nan nan nan nan nan nan nan nan nan nan
nan nan nan nan nan nan nan nan nan nan nan nan nan nan nan nan nan nan nan nan nan nan nan nan nan nan nan nan nan nan nan nan nan nan nan nan nan nan nan nan nan nan nan
nan nan nan nan nan nan nan nan nan nan nan nan nan nan nan nan nan nan nan nan nan nan nan nan nan nan nan nan nan nan nan nan nan nan nan nan nan nan nan nan nan nan nan
nan nan nan nan nan nan nan nan nan nan nan nan nan nan nan nan nan nan nan nan nan nan nan nan nan nan nan nan nan nan nan nan nan nan nan nan nan nan nan nan nan nan nan
nan nan nan nan nan nan nan nan nan nan nan nan nan nan nan nan nan nan nan nan nan nan nan nan nan nan nan nan nan nan nan nan nan nan nan nan nan nan nan nan nan nan nan
nan nan nan nan nan nan nan nan nan nan nan nan nan nan nan nan nan nan nan nan nan nan nan nan nan nan nan nan nan nan nan nan nan nan nan nan nan nan nan nan nan nan nan
nan nan nan nan nan nan nan nan nan nan nan nan nan nan nan nan nan nan nan nan nan nan nan nan nan nan nan nan nan nan nan nan nan nan nan nan nan nan nan nan nan nan nan
Wind_Direction
359 7 7 10 4 5 9 14 14 15 14 16 11 7 1 0 352 342 338 332 311 334 nan 23 19 350 343 340 342 341 341 332 337 330 324 319 315 317 314 nan 313 233 274
350 349 357 357 357 357 1 4 1 3 359 358 354 352 352 351 346 345 346 336 329 345 8 8 17 349 345 342 333 339 338 339 334 352 333 329 328 314 304 292 293 255 294
330 328 338 343 348 351 354 358 357 356 355 350 343 342 340 336 334 331 334 335 332 339 350 359 2 344 340 334 331 329 329 327 333 339 342 339 338 307 299 296 334 353 278
317 319 313 326 328 343 345 347 357 355 354 348 342 337 334 330 327 324 324 324 328 330 339 339 337 340 337 330 331 328 323 323 311 312 316 315 321 332 315 309 302 301 299
301 306 310 309 306 317 320 322 318 325 335 335 337 335 330 329 323 318 314 314 314 312 315 318 323 327 336 335 324 319 322 319 311 309 304 301 302 301 311 314 314 298 304
292 296 295 296 296 300 302 305 314 315 315 314 322 321 320 320 325 318 310 308 309 309 298 297 304 316 322 327 329 338 327 319 314 304 307 303 299 298 296 301 306 300 280
289 286 290 296 296 294 298 300 306 313 316 315 313 313 316 320 322 321 320 307 299 304 306 297 286 285 292 300 304 312 316 324 327 304 302 300 295 295 288 286 294 292 291
278 282 287 291 295 296 300 300 304 306 310 312 314 315 312 310 316 316 314 312 nan nan nan nan nan 285 284 284 289 294 298 299 299 293 298 293 298 293 293 286 287 284 275
286 284 282 281 285 286 290 294 295 298 302 310 309 309 311 307 315 315 311 302 nan nan nan nan nan nan nan nan 273 276 282 282 282 296 299 303 293 284 283 273 276 277 271
285 276 272 276 279 282 286 290 296 301 309 310 309 313 315 309 310 308 303 300 nan nan nan nan nan nan nan nan nan nan nan 262 264 263 264 269 271 271 280 283 271 273 272
271 271 273 277 280 285 288 291 294 297 299 300 304 307 311 312 301 295 291 293 288 nan nan nan nan nan nan nan nan nan nan nan nan 268 271 268 266 262 261 270 277 277 272
265 273 271 277 277 281 285 286 290 297 302 315 309 301 298 nan nan nan nan nan nan nan nan nan nan nan nan nan nan nan nan nan nan nan nan nan 269 264 261 260 266 274 274
251 235 259 269 276 286 293 296 294 299 313 312 nan nan nan nan nan nan nan nan nan nan nan nan nan nan nan nan nan nan nan nan nan nan nan nan nan nan nan nan nan 258 269
223 268 291 273 292 294 299 301 311 299 298 298 nan nan nan nan nan nan nan nan nan nan nan nan nan nan nan nan nan nan nan nan nan nan nan nan nan nan nan nan nan nan 259
319 301 266 298 283 267 287 312 313 308 300 nan nan nan nan nan nan nan nan nan nan nan nan nan nan nan nan nan nan nan nan nan nan nan nan nan nan nan nan nan nan nan 257
314 319 299 nan nan nan nan nan nan nan nan nan nan nan nan nan nan nan nan nan nan nan nan nan nan nan nan nan nan nan nan nan nan nan nan nan nan nan nan nan nan nan nan
nan nan 302 nan nan nan nan nan nan nan nan nan nan nan nan nan nan nan nan nan nan nan nan nan nan nan nan nan nan nan nan nan nan nan nan nan nan nan nan nan nan nan 250
297 300 nan 299 nan nan nan nan nan nan nan nan nan nan nan nan nan nan nan nan nan nan nan nan nan nan nan nan nan nan nan nan nan nan nan nan nan nan nan nan nan nan nan
294 nan nan nan nan nan nan nan nan nan nan nan nan nan nan nan nan nan nan nan nan nan nan nan nan nan nan nan nan nan nan nan nan nan nan nan nan nan nan nan nan nan nan
nan nan nan nan nan nan nan nan nan nan nan nan nan nan nan nan nan nan nan nan nan nan nan nan nan nan nan nan nan nan nan nan nan nan nan nan nan nan nan nan nan nan nan
nan nan nan nan nan nan nan nan nan nan nan nan nan nan nan nan nan nan nan nan nan nan nan nan nan nan nan nan nan nan nan nan nan nan nan nan nan nan nan nan nan nan nan
nan nan nan nan nan nan nan nan nan nan nan nan nan nan nan nan nan nan nan nan nan nan nan nan nan nan nan nan nan nan nan nan nan nan nan nan nan nan nan nan nan nan nan
nan nan nan nan nan nan nan nan nan nan nan nan nan nan nan nan nan nan nan nan nan nan nan nan nan nan nan nan nan nan nan nan nan nan nan nan nan nan nan nan nan nan nan
nan nan nan nan nan nan nan nan nan nan nan nan nan nan nan nan nan nan nan nan nan nan nan nan nan nan nan nan nan nan nan nan nan nan nan nan nan nan nan nan nan nan nan
nan nan nan nan nan nan nan nan nan nan nan nan nan nan nan nan nan nan nan nan nan nan nan nan nan nan nan nan nan nan nan nan nan nan nan nan nan nan nan nan nan nan nan
nan nan nan nan nan nan nan nan nan nan nan nan nan nan nan nan nan nan nan nan nan nan nan nan nan nan nan nan nan nan nan nan nan nan nan nan nan nan nan nan nan nan nan